Location: *
(41.7492°S, 135.4150°W)
Time: 18:48:22
(UTC+00:00)

ISS - Visible Passes

Search period start: 21 January 2022 00:00
Search period end: 31 January 2022 00:00
Orbit: 413 x 423 km, 51.6° (Epoch: 21 January)

Date Brightness Start Highest point End Pass type
(mag) Time Alt. Az. Time Alt. Az. Time Alt. Az.
22 Jan -1.8 13:18:32 10° N 13:21:21 24° NE 13:24:11 10° E visible
23 Jan -1.2 12:31:53 10° NNE 12:33:49 14° NE 12:35:45 10° E visible
24 Jan -3.5 13:19:12 10° NW 13:22:37 68° NE 13:26:05 10° ESE visible
25 Jan -2.8 12:33:25 22° NNW 12:35:11 39° NE 12:38:29 10° ESE visible
26 Jan -2.0 11:47:57 24° NE 11:47:57 24° NE 11:50:47 10° ESE visible
26 Jan -3.0 13:21:14 10° WNW 13:24:35 46° SSW 13:27:59 10° SE visible
27 Jan -0.8 11:02:31 11° E 11:02:31 11° E 11:02:49 10° E visible
27 Jan -3.6 12:35:30 27° WNW 12:37:16 72° SW 12:40:46 10° SE visible
28 Jan -3.7 11:50:09 70° NE 11:50:09 70° NE 11:53:36 10° ESE visible
28 Jan -1.8 13:24:18 10° WSW 13:27:15 25° SSW 13:30:12 10° SE visible
29 Jan -1.6 11:04:51 23° E 11:04:51 23° E 11:06:27 10° ESE visible
29 Jan -2.3 12:37:50 16° W 12:40:03 32° SSW 12:43:15 10° SE visible
30 Jan -3.0 11:52:37 43° SW 11:53:00 45° SSW 11:56:25 10° SE visible
30 Jan -1.2 13:28:04 10° SW 13:30:32 18° S 13:33:00 10° SE visible
